Weather in Molochnoye

Russia / Republic of Crimea     45°11′49″N   33°13′29″E
temp.,
°C
wind,
m/s
gust,
m/s
humid.,
%
clouds,
%
prec.,
mm/h
press.,
hPa
HPBL,
m
5 december, sun
sun500:00+6ne71094100 4.5 1008419
03:00+6nne6891100 5.2 1009348
06:00+5nnw458963 0.0 1011369
09:00+5nnw3383100 0.0 1013531
12:00+6nnw1178100 0.1 1014480
15:00+7wnw0172100 0.1 1014645
18:00+6e227888 0.0 1014120
21:00+5e33825 0.0 1015123
6 december, mon
mon600:00+5ese3386100 0.0 101598
03:00+9sse4581100 0.0 1015183
06:00+9se3482100 0.0 1014151
09:00+9ese4680100 0.0 1014168
12:00+12sse410715 0.0 1014424
15:00+13s6117971 0.1 1013335
18:00+13s51279100 0.0 1013238
21:00+14s71374100 0.0 1014240
7 december, tue
tue700:00+13sse41176100 0.0 1013218
03:00+13sse4974100 0.0 1013134
06:00+13se467049 0.0 101171
09:00+12se3468100 0.0 101151
12:00+14se226191 0.0 101080
15:00+16n335310 0.0 1008126
18:00+12nne597215 0.0 1007149
21:00+11ene6107192 0.0 1004145
8 december, wed
wed800:00+11e4468100 0.0 100353
03:00+12ese2264100 0.0 100215
06:00+11s336693 0.0 100124
09:00+13ssw4877100 0.0 1002122
12:00+13s5780100 0.0 1002300
15:00+13s6974100 0.1 1002402
18:00+11s5795100 0.6 1003328
21:00+11sw101295100 2.4 1004692
9 december, thu
thu900:00+9wsw101289100 6.4 1008826
03:00+8wsw91187100 7.3 1011905
06:00+8w91185100 0.4 1013940
09:00+8wsw91176100 0.4 10151007
12:00+9w797395 0.1 1017997
15:00+9wsw687394 0.2 1017927
18:00+9sw577288 0.1 1018446
21:00+9ssw58731 0.1 1018417